This is the latest recevied weather packets stored in our database for station/object CRYC. If no packets are shown the sender has not sent any weather packets the latest 10 day(s).
| Time | Temp. | Humidity | Pressure | Rain* | Wind** | Luminosity | Snow |
|---|---|---|---|---|---|---|---|
| 1778136552 | 13.33° C | - | - | 0 mm | 2.24 m/s, 1° | - | - |
| 1778135946 | 13.33° C | - | - | 0 mm | 1.34 m/s, 48° | - | - |
| 1778135340 | 13.33° C | - | - | 0 mm | 1.79 m/s, 89° | - | - |
| 1778134745 | 13.89° C | - | - | 0 mm | 1.79 m/s, 14° | - | - |
| 1778134129 | 13.89° C | - | - | 0 mm | 0.89 m/s, 8° | - | - |
| 1778133519 | 14.44° C | - | - | 0 mm | 0.45 m/s, 347° | - | - |
| 1778132912 | 15° C | - | - | 0 mm | 0 m/s | - | - |
| 1778132306 | 15° C | - | - | 0 mm | 0.89 m/s, 357° | - | - |
| 1778131701 | 15° C | - | - | 0 mm | 0.45 m/s, 8° | - | - |
| 1778131092 | 15.56° C | - | - | 0 mm | 2.24 m/s, 63° | - | - |
| 1778130485 | 16.67° C | - | - | 0 mm | 0.45 m/s, 340° | - | - |
| 1778129878 | 17.22° C | - | - | 0 mm | 1.79 m/s, 39° | - | - |
| 1778129272 | 17.22° C | - | - | 0 mm | 1.34 m/s, 4° | - | - |
| 1778128682 | 17.22° C | - | - | 0 mm | 1.34 m/s, 3° | - | - |
| 1778128066 | 17.78° C | - | - | 0 mm | 1.79 m/s, 328° | - | - |
| 1778127458 | 17.78° C | - | - | 0 mm | 0.45 m/s, 35° | - | - |
| 1778126849 | 18.33° C | - | - | 0 mm | 1.34 m/s, 63° | - | - |
| 1778125639 | 17.78° C | - | - | 0 mm | 1.34 m/s, 255° | - | - |
| 1778125034 | 17.78° C | - | - | 0 mm | 0.89 m/s, 298° | - | - |
| 1778124427 | 17.78° C | - | - | 0 mm | 0 m/s | - | - |
| 1778123821 | 17.78° C | - | - | 0 mm | 0 m/s | - | - |
| 1778123213 | 17.78° C | - | - | 0 mm | 0 m/s | - | - |
| 1778122608 | 17.78° C | - | - | 0 mm | 0 m/s | - | - |
| 1778122003 | 17.22° C | - | - | 0 mm | 0 m/s | - | - |
| 1778121401 | 17.22° C | - | - | 0 mm | 0 m/s | - | - |
* Rain latest hour (hover to see other rain measurements)
** Current wind speed in m/s (hover to see current wind gust speed)